Regional Weather Roundup
Issued by NWS Albany, NY

Home | Current Version | Previous Version | Graphics & Text | Print | Product List | Glossary Off
Versions: 1 2 3 4 5 6 7 8 9 10 11 12 13 14 15 16 17 18 19 20 21 22 23 24 25 26 27 28 29 30 31 32 33 34 35 36 37 38 39 40 41 42 43 44 45 46 47 48 49 50

000
ASUS41 KALY 051710
RWRALY

NEW YORK STATE HOURLY WEATHER ROUNDUP
NATIONAL WEATHER SERVICE ALBANY NY
1200 PM EST THU MAR 05 2015

NOTE: "FAIR" INDICATES FEW OR NO CLOUDS BELOW 12,000 FEET WITH NO
SIGNIFICANT WEATHER AND/OR NO OBSTRUCTIONS TO VISIBILITY.

NYZ032-033-038>043-046>054-057>066-NYZ062>081-051800-
EAST


CITY           SKY/WX    TMP DP  RH WIND       PRES   REMARKS
ALBANY         CLOUDY    21   5  50 W17       30.18R WCI   7
GLENS FALLS    CLOUDY    20   1  43 NW15      30.16F WCI   6
POUGHKEEPSIE   CLOUDY    26   4  38 N9        30.14R WCI  17
NEWBURGH       CLOUDY    23  10  58 NW12      30.13R WCI  12
MONTGOMERY     CLOUDY    25   3  38 NW9G17    30.13R WCI  15
WHITE PLAINS   SNOW      22  18  85 N14       30.11R VSB 1/4 WCI   9
ISLIP          LGT SNOW  25  21  85 N9        30.11R VSB 3/4 WCI  15
NEW YORK CITY  SNOW      26  23  88 NW18      30.15R VSB 1/4 WCI  13
CENTRAL PARK   SNOW      23  21  92 W9G18     30.18R VSB 1/4 WCI  13
$$

NYZ005>009-017-018-044>046-055-056-051800-
CENTRAL


CITY           SKY/WX    TMP DP  RH WIND       PRES   REMARKS
FULTON         CLOUDY    14   4  64 N9        30.28R WCI   2
SYRACUSE       CLOUDY    11   4  73 NW9       30.26R WCI  -2
ROME           CLOUDY    14   4  64 W9        30.25R WCI   2
ELMIRA         CLOUDY    16   0  49 N10       30.22R WCI   4
BINGHAMTON     CLOUDY    12   3  67 NW10      30.12R WCI  -1
MONTICELLO     CLOUDY    16  -2  45 NW15G23   30.10R WCI   1
$$

NYZ026>034-041>043-051800-
NORTH


CITY           SKY/WX    TMP DP  RH WIND       PRES   REMARKS
WATERTOWN      MOSUNNY   14  -3  47 N8        30.28R WCI   3
FORT DRUM      NOT AVBL
MASSENA        MOSUNNY   10  -6  48 W8        30.31F WCI  -2
SARANAC LAKE   PTSUNNY    7  -7  52 W8        30.07F WCI  -6
PLATTSBURGH    CLOUDY    13  -4  46 N10       30.24S WCI   0
$$

NYZ001>004-010>016-019>021-051800-
WEST


CITY           SKY/WX    TMP DP  RH WIND       PRES   REMARKS
NIAGARA FALLS  FLURRIES  10   2  69 NW9       30.31F WCI  -3
BUFFALO        FLURRIES  11   0  61 VRB6      30.29F WCI   1
DUNKIRK        PTSUNNY    8  -2  63 NW9       30.33F WCI  -5
JAMESTOWN      PTSUNNY    7  -4  61 N9        30.19F WCI  -7
WELLSVILLE     CLOUDY     9  -4  55 W10       30.13S WCI  -5
ROCHESTER      LGT SNOW  13   4  67 W10       30.30R WCI   0
PENN YAN       CLOUDY    13   1  59 W10G18    30.25R WCI   0
$$

             KEY
       WCI = WIND CHILL INDEX
       VSB = VISIBILITY
       HX  = HEAT INDEX
$$



USA.gov is the U.S. government's official web portal to all federal, state and local government web resources and services.